Previsão horária em Aathal

Hoje, 29 Outubro, Quinta-feira

Tempo Temperatura Precipitação Vento Pressão Humidade
00:00 +9°C° 0.5 mm 2 m/s 715 mmHg 93%
01:00 +9°C° 0 mm 2 m/s 715 mmHg 95%
02:00 +9°C° 0.4 mm 2 m/s 715 mmHg 94%
03:00 +9°C° 0.4 mm 2 m/s 715 mmHg 94%
04:00 +9°C° 0.4 mm 3 m/s 714 mmHg 93%
05:00 +9°C° 0.8 mm 3 m/s 715 mmHg 93%
06:00 +9°C° 0.8 mm 3 m/s 715 mmHg 94%
07:00 +9°C° 0.8 mm 3 m/s 716 mmHg 94%
08:00 +9°C° 0.8 mm 3 m/s 716 mmHg 94%
09:00 +9°C° 0.8 mm 3 m/s 717 mmHg 94%
10:00 +9°C° 0.8 mm 3 m/s 717 mmHg 93%
11:00 +9°C° 0.4 mm 3 m/s 717 mmHg 93%
12:00 +9°C° 0.4 mm 3 m/s 718 mmHg 92%
13:00 +10°C° 0.4 mm 3 m/s 718 mmHg 91%
14:00 +10°C° 0.1 mm 2 m/s 718 mmHg 91%
15:00 +10°C° 0.1 mm 2 m/s 718 mmHg 91%
16:00 +10°C° 0.1 mm 2 m/s 718 mmHg 91%
17:00 +10°C° 0.2 mm 2 m/s 718 mmHg 92%
18:00 +9°C° 0.2 mm 2 m/s 719 mmHg 92%
19:00 +9°C° 0.2 mm 2 m/s 719 mmHg 93%
20:00 +9°C° 0.4 mm 2 m/s 719 mmHg 93%
21:00 +9°C° 0.4 mm 2 m/s 719 mmHg 93%
22:00 +9°C° 0.4 mm 2 m/s 720 mmHg 93%
23:00 +9°C° 0.1 mm 2 m/s 720 mmHg 92%

Amanhã, 30 Outubro, Sexta-feira

Tempo Temperatura Precipitação Vento Pressão Humidade
00:00 +9°C° 0.1 mm 2 m/s 720 mmHg 92%
01:00 +10°C° 0.1 mm 1 m/s 720 mmHg 91%
02:00 +10°C° 0 mm 1 m/s 720 mmHg 91%
03:00 +10°C° 0 mm 1 m/s 720 mmHg 91%
04:00 +10°C° 0 mm 1 m/s 720 mmHg 90%
05:00 +10°C° 0 mm 1 m/s 720 mmHg 91%
06:00 +9°C° 0 mm 1 m/s 720 mmHg 91%
07:00 +9°C° 0 mm 1 m/s 720 mmHg 91%
08:00 +10°C° 0 mm 1 m/s 720 mmHg 88%
09:00 +11°C° 0 mm 1 m/s 720 mmHg 85%
10:00 +13°C° 0 mm 1 m/s 720 mmHg 83%
11:00 +13°C° 0 mm 1 m/s 720 mmHg 80%
12:00 +14°C° 0 mm 1 m/s 720 mmHg 76%
13:00 +15°C° 0 mm 1 m/s 720 mmHg 73%
14:00 +15°C° 0 mm 1 m/s 720 mmHg 76%
15:00 +15°C° 0 mm 1 m/s 720 mmHg 78%
16:00 +14°C° 0 mm 1 m/s 720 mmHg 80%
17:00 +13°C° 0 mm 1 m/s 720 mmHg 83%
18:00 +11°C° 0 mm 1 m/s 719 mmHg 86%
19:00 +9°C° 0 mm 0 m/s 719 mmHg 89%
20:00 +10°C° 0 mm 1 m/s 720 mmHg 89%
21:00 +9°C° 0 mm 1 m/s 720 mmHg 89%
22:00 +9°C° 0 mm 1 m/s 720 mmHg 88%
23:00 +9°C° 0 mm 1 m/s 720 mmHg 88%

Depois de amanhã, 31 Outubro, Sábado

Tempo Temperatura Precipitação Vento Pressão Humidade
00:00 +9°C° 0 mm 1 m/s 720 mmHg 87%
01:00 +8°C° 0 mm 1 m/s 719 mmHg 86%
02:00 +7°C° 0 mm 0 m/s 719 mmHg 86%
03:00 +7°C° 0 mm 0 m/s 719 mmHg 85%
04:00 +7°C° 0 mm 0 m/s 719 mmHg 84%
05:00 +7°C° 0 mm 0 m/s 718 mmHg 84%
06:00 +7°C° 0 mm 0 m/s 718 mmHg 83%
07:00 +6°C° 0 mm 0 m/s 718 mmHg 82%
08:00 +8°C° 0 mm 0 m/s 718 mmHg 79%
09:00 +10°C° 0 mm 0 m/s 718 mmHg 76%
10:00 +12°C° 0 mm 0 m/s 718 mmHg 73%
11:00 +13°C° 0 mm 0 m/s 718 mmHg 69%
12:00 +14°C° 0 mm 0 m/s 718 mmHg 66%
13:00 +16°C° 0 mm 0 m/s 718 mmHg 62%
14:00 +15°C° 0 mm 0 m/s 718 mmHg 66%
15:00 +14°C° 0 mm 0 m/s 717 mmHg 70%
16:00 +14°C° 0 mm 0 m/s 717 mmHg 73%
17:00 +13°C° 0 mm 0 m/s 717 mmHg 75%
18:00 +12°C° 0 mm 1 m/s 717 mmHg 76%
19:00 +11°C° 0 mm 1 m/s 717 mmHg 77%
20:00 +10°C° 0 mm 1 m/s 717 mmHg 76%
21:00 +10°C° 0 mm 1 m/s 717 mmHg 75%
22:00 +10°C° 0 mm 1 m/s 717 mmHg 73%
23:00 +9°C° 0 mm 1 m/s 717 mmHg 73%

1 Novembro, Domingo

Tempo Temperatura Precipitação Vento Pressão Humidade
00:00 +9°C° 0 mm 1 m/s 717 mmHg 72%
01:00 +9°C° 0 mm 1 m/s 717 mmHg 71%
02:00 +9°C° 0 mm 1 m/s 717 mmHg 70%
03:00 +9°C° 0 mm 1 m/s 716 mmHg 69%
04:00 +9°C° 0 mm 1 m/s 716 mmHg 68%
05:00 +9°C° 0 mm 1 m/s 716 mmHg 67%
06:00 +8°C° 0 mm 1 m/s 716 mmHg 67%
07:00 +8°C° 0 mm 1 m/s 715 mmHg 67%
08:00 +9°C° 0 mm 0 m/s 716 mmHg 64%
09:00 +11°C° 0 mm 0 m/s 716 mmHg 61%
10:00 +13°C° 0 mm 0 m/s 716 mmHg 58%
11:00 +14°C° 0 mm 0 m/s 716 mmHg 57%
12:00 +15°C° 0 mm 0 m/s 716 mmHg 55%
13:00 +16°C° 0 mm 0 m/s 716 mmHg 53%
14:00 +15°C° 0 mm 0 m/s 716 mmHg 58%
15:00 +16°C° 0 mm 1 m/s 716 mmHg 63%
16:00 +15°C° 0 mm 1 m/s 716 mmHg 67%
17:00 +14°C° 0 mm 1 m/s 716 mmHg 67%
18:00 +14°C° 0 mm 1 m/s 716 mmHg 67%
19:00 +13°C° 0 mm 1 m/s 716 mmHg 67%
20:00 +13°C° 0 mm 1 m/s 716 mmHg 65%
21:00 +13°C° 0 mm 1 m/s 716 mmHg 63%
22:00 +13°C° 0 mm 1 m/s 716 mmHg 61%
23:00 +13°C° 0 mm 1 m/s 716 mmHg 61%

2 Novembro, Segunda-feira

Tempo Temperatura Precipitação Vento Pressão Humidade
00:00 +12°C° 0 mm 1 m/s 715 mmHg 61%
01:00 +11°C° 0 mm 1 m/s 715 mmHg 62%
02:00 +11°C° 0 mm 1 m/s 715 mmHg 61%
03:00 +11°C° 0 mm 1 m/s 715 mmHg 60%
04:00 +11°C° 0 mm 1 m/s 715 mmHg 59%
05:00 +11°C° 0 mm 1 m/s 715 mmHg 59%
06:00 +11°C° 0 mm 1 m/s 715 mmHg 58%
07:00 +11°C° 0 mm 1 m/s 715 mmHg 58%
08:00 +12°C° 0 mm 1 m/s 715 mmHg 57%
09:00 +13°C° 0 mm 0 m/s 715 mmHg 57%
10:00 +15°C° 0 mm 0 m/s 715 mmHg 56%
11:00 +16°C° 0 mm 0 m/s 715 mmHg 54%
12:00 +17°C° 0 mm 0 m/s 715 mmHg 52%
13:00 +18°C° 0 mm 0 m/s 715 mmHg 50%
14:00 +18°C° 0 mm 0 m/s 715 mmHg 56%
15:00 +17°C° 0 mm 0 m/s 714 mmHg 62%
16:00 +16°C° 0 mm 0 m/s 714 mmHg 68%
17:00 +15°C° 0 mm 1 m/s 714 mmHg 68%
18:00 +14°C° 0 mm 1 m/s 714 mmHg 67%
19:00 +13°C° 0 mm 1 m/s 714 mmHg 67%
20:00 +12°C° 0 mm 1 m/s 714 mmHg 67%
21:00 +12°C° 0 mm 1 m/s 714 mmHg 67%
22:00 +12°C° 0 mm 1 m/s 714 mmHg 67%
23:00 +12°C° 0 mm 1 m/s 714 mmHg 67%

3 Novembro, Terça-feira

Tempo Temperatura Precipitação Vento Pressão Humidade
00:00 +12°C° 0 mm 1 m/s 714 mmHg 66%
01:00 +12°C° 0 mm 1 m/s 714 mmHg 65%
02:00 +11°C° 0 mm 1 m/s 714 mmHg 69%
03:00 +11°C° 0 mm 1 m/s 714 mmHg 74%
04:00 +11°C° 0 mm 1 m/s 714 mmHg 78%
05:00 +11°C° 0 mm 1 m/s 714 mmHg 80%
06:00 +10°C° 0 mm 0 m/s 714 mmHg 81%
07:00 +11°C° 0 mm 0 m/s 714 mmHg 83%
08:00 +11°C° 0 mm 0 m/s 714 mmHg 83%
09:00 +12°C° 0 mm 0 m/s 714 mmHg 82%
10:00 +12°C° 0 mm 0 m/s 714 mmHg 82%
11:00 +12°C° 0.1 mm 0 m/s 714 mmHg 85%
12:00 +12°C° 0.1 mm 0 m/s 714 mmHg 88%
13:00 +13°C° 0.1 mm 1 m/s 714 mmHg 91%
14:00 +13°C° 0.2 mm 1 m/s 714 mmHg 93%
15:00 +12°C° 0.2 mm 1 m/s 714 mmHg 94%
16:00 +12°C° 0.2 mm 1 m/s 714 mmHg 96%
17:00 +12°C° 0.4 mm 1 m/s 715 mmHg 96%
18:00 +11°C° 0.4 mm 1 m/s 715 mmHg 97%
19:00 +11°C° 0.4 mm 1 m/s 715 mmHg 97%
20:00 +11°C° 0.5 mm 1 m/s 715 mmHg 97%
21:00 +11°C° 0.5 mm 1 m/s 715 mmHg 97%
22:00 +11°C° 0.5 mm 1 m/s 715 mmHg 98%
23:00 +11°C° 0.8 mm 1 m/s 715 mmHg 98%
Mostrar mais